Startpagina
METAR-TAF:

METAR-TAF

Vliegvelden :

Torrington Municipal Airport

Torrington, Wyoming, Verenigde Staten

breedte: 42-03-53N, lengte: 104-09-10W, hoogte: 1282 m

Actueel weer

Dit bericht is 7 minuten geleden gemaakt, om 09:53 UTC
Wind 5 kt uit het westnoordwesten
Temperatuur 9°C
Vochtigheid 57%
Druk 1014 hPa
Zicht: 16.1 km
Onbewolkt

METAR: KTOR 230953Z AUTO 30005KT 10SM CLR 09/01 A2995 RMK AO2 SLP094 T00940006

Tijdstip: 04:00 (10:00 UTC)


TAF: ontbreekt

Waarnemingen en weersverwachtingen van meer dan 4000 vliegvelden (METAR en TAF).

De beschikbare stations zijn de gele en rode punten op de kaart.

Ga met uw muis naar het station om de naam te zien.

Klik dan om waarnemingen en weersverwachtingen te zien.

kaart wijzigen: klik op de groene knoppen met een zwart kruis om in te zoomen, op de groene knop met een streepje om uit te zoomen of op de groene pijlen voor aangrenzende kaarten.


METAR-TAF: